THOR ABLESTAR DEB, 158

Orbit data source: Space-Track

THOR ABLESTAR DEB, 158 is space debris in LEO originally from a launch on Thu, 29 Jun 1961 UTC launched from the Air Force Eastern Test Range (AFETR). Debris objects in space refer to the collection of defunct objects orbiting the Earth. Examples of debris include non-operational satellites, rocket bodies, and fragments generated from explosions, collisions, or faulty payload assembly.

Loading next visibility...
Identifier
158, 1961-015AU
Orbit
LEO
Country
Flag of USUS
Related business
Manufacturer
Unknown
Mission
Spacecraft
Bus & Motor
Unknown
Mass
Unknown
Launch date (UTC)
1961-06-29 (64 years ago)
Launch vehicle
Unknown
Launch site
Air Force Eastern Test Range (AFETR)
Object type
Payload
Rocket body
Debris
Shape & HBR
Unknown shape, 0.2 m
Radar Cross Section
Medium (>0.1 m² and <1 m²)

Expand to show TLE details & history
Last TLE update: 14 hours ago

TLE from 14 hours ago
0 THOR ABLESTAR DEB
1   158U 61015AU  25304.40834772  .00000399  00000-0  11667-2 0  9990
2   158  67.0737 299.8914 0605039  22.5249 340.1162 12.66071835976384
Epoch: 2025-10-31T09:48Z
TLE epoch observation values (Epoch: 2025-10-31T09:48:01.243Z)
Latitude
-0.00005°
Longitude
112.93299°
Altitude
961.064 km
Speed
7.577 km/s
True Right ascension
19h 59m 33s
True Declination
0° 00' 00"
Sunlit
Object was in daylight at epoch
Visualization orbit readout
Latitude
Unknown
Longitude
Unknown
Altitude
Unknown
Speed
Unknown
Apparent Right ascension
Unknown
Apparent Declination
Unknown
Sunlit
N/A
Visualization observer readout
Local Sidereal Time
19:37:15
Azimuth
Unknown
Elevation
Unknown
Doppler factor
Unknown
Orbital elements
Apogee altitude
1,866.829 km
Perigee altitude
926.045 km
Semi-major axis
7,774.574 km
Eccentricity
0.0605
Inclination
67.0737°
RAAN
299.8914°
Arg. of periapsis
22.5249°
True anomaly
337.579°
Mean anomaly
340.1162°
Eccentric anomaly
338.86633°
Mean motion
3.16613 °/min
Orbital period
113.7 mins
BSTAR
0.0011667
Loading maneuver chart data...
Computing Atmospheric mass density...

Documentation

Showing up to 5 results
|